Location: Boncourt
(49.6160°N, 3.9448°E)
Time: 14:07:50
(UTC+00:00)

Okean-O - Pass Details

Date: 09 February 2023
Orbit: 637 x 638 km, 98.1° (Epoch: 22 March)

Event Time Altitude Azimuth Distance (km) Brightness Sun altitude
Exits shadow 20:06:38 29° 319° (NW) 1,172 4.3 -31.6°
Drops below altitude 10° 20:09:03 10° 336° (NNW) 2,042 5.6 -32.0°
Sets 20:11:20 0° 342° (NNW) 2,956 6.5 -32.3°
